Miscellaneous Local Product
Issued by NWS Hastings, NE

Home | Current Version | Previous Version | Text Only | Print | Product List | Glossary Off
Versions: 1 2 3 4 5 6 7 8 9 10 11 12 13 14 15 16 17 18 19 20 21 22 23 24 25 26 27 28 29 30 31 32 33 34 35 36 37 38 39 40 41 42 43 44 45 46 47 48 49 50

002
AXUS43 KGID 041802
MISGRI

GID CWA HOURLY WEATHER ROUNDUP
NATIONAL WEATHER SERVICE HASTINGS NE
100 PM CDT WED MAY 04 2016

NOTE: "FAIR" INDICATES FEW OR NO CLOUDS BELOW 12,000 FEET WITH NO
SIGNIFICANT WEATHER AND/OR OBSTRUCTIONS TO VISIBILITY.

...SOUTH CENTRAL NEBRASKA...

CITY           SKY/WX    TMP DP  RH WIND       PRES   REMARKS
GRAND ISLAND   SUNNY     65  32  29 N15G22    30.12F
HASTINGS       SUNNY     65  36  34 N13G22    30.12S
KEARNEY        SUNNY     66  36  32 N14       30.13F
ORD            SUNNY     66  33  29 N15G23    30.11F
YORK           SUNNY     64  37  36 N12G22    30.11S
AURORA         SUNNY     65  33  30 N14G22    30.11F
LEXINGTON      SUNNY     67  37  33 N13       30.14F
HOLDREGE       SUNNY     66  34  30 N10       30.13F
HEBRON         SUNNY     65  33  29 N13G20    30.10S

...NEBRASKA PANHANDLE...

CITY           SKY/WX    TMP DP  RH WIND       PRES   REMARKS
CHADRON        SUNNY     72  39  30 VRB3      30.15F
ALLIANCE       SUNNY     69  38  32 VRB5      30.18F
SCOTTSBLUFF    SUNNY     71  38  29 S6        30.18F
SIDNEY         SUNNY     71  39  31 NE8       30.20F

...WESTERN AND NORTH CENTRAL NEBRASKA...

CITY           SKY/WX    TMP DP  RH WIND       PRES   REMARKS
VALENTINE      SUNNY     70  32  24 N5        30.13F
AINSWORTH      SUNNY     66  31  27 N12       30.15S
ONEILL         SUNNY     63  33  32 N9        30.14S
BROKEN BOW     SUNNY     68  40  35 N14       30.13F
IMPERIAL       SUNNY     72  39  30 N7        30.17F
NORTH PLATTE   SUNNY     73  40  30 N12G18    30.14F
MCCOOK         SUNNY     72  44  36 NW8       30.15F

...EASTERN NEBRASKA...

CITY           SKY/WX    TMP DP  RH WIND       PRES   REMARKS
NORFOLK        SUNNY     64  35  34 N16       30.09F
SO SIOUX CITY  SUNNY     66  39  37 N13G20    30.07F
TEKAMAH        SUNNY     64  40  41 N18G25    30.06F
COLUMBUS       SUNNY     64  36  34 N10G17    30.11S
ALBION         SUNNY     63  36  36 NW9G20    30.11F
OMAHA EPPLEY   MOSUNNY   65  39  38 N21       30.05S
OFFUTT AFB     MOSUNNY   64  40  41 NW17G23   30.05S
MILLARD        SUNNY     64  38  38 NW14      30.06S
LINCOLN        SUNNY     68  36  30 N16G22    30.09S
NEBRASKA CITY  SUNNY     65  33  30 N18G26    30.05S
BEATRICE       SUNNY     65  37  36 N13G25    30.08S
FALLS CITY     SUNNY     66  38  35 N17G25    30.03S

...NORTHERN KANSAS...

CITY           SKY/WX    TMP DP  RH WIND       PRES   REMARKS
GOODLAND       SUNNY     72  40  31 VRB5      30.18F
HILL CITY      SUNNY     72  38  29 VRB5G21   30.14F
NORTON         CLEAR     70  34  26 N6        30.14S
PHILLIPSBURG   SUNNY     70  37  30 CALM      30.13F
SMITH CENTER   SUNNY     66  37  34 N12       30.12F
BELOIT         SUNNY     68  30  24 N14G24    30.10S
HAYS           SUNNY     70  43  37 N15G22    30.13F
RUSSELL        SUNNY     70  39  32 N18G25    30.10F
CONCORDIA      SUNNY     68  36  30 NW14G24   30.09S
SALINA         SUNNY     72  37  28 N15       30.09S
TOPEKA         SUNNY     68  38  33 N20       30.03S



USA.gov is the U.S. government's official web portal to all federal, state and local government web resources and services.